Location: Gloden
(48.4833°N, 15.3167°E)
Time: 00:43:29
(UTC+00:00)

Cosmos 1666 - Pass Details

Date: 15 December 2019
Orbit: 498 x 521 km, 82.5° (Epoch: 18 January)

Event Time Altitude Azimuth Distance (km) Brightness Sun altitude
Rises 05:41:23 0° 203° (SSW) 2,618 6.3 -9.8°
Reaches altitude 10° 05:43:34 10° 209° (SSW) 1,732 5.3 -9.4°
Maximum altitude 05:47:14 46° 284° (WNW) 697 2.9 -8.9°
Drops below altitude 10° 05:50:54 10° 358° (N) 1,733 5.1 -8.3°
Sets 05:53:06 0° 5° (N) 2,620 6.1 -8.0°
